[[{"header":{"parameterUnit":"m.s-1","parameterCategory":1,"la1":30.2991,"la2":30.254,"lo1":-89.0895,"lo2":-89.0444,"dy":0.0017,"dx":0.0017,"nx":28,"ny":28,"refTime":"2025-04-06T03:00:00:Z","depth":0,"parameterNumber":2,"parameterNumberName":"U-component_of_WINDS"},"data":[0,0,0,0,0,0,0,0,0,0,0,0,0,0,0,0,0,0,0,0,0,0,0,0,0,0,0,0,0,0,0,0,0,0,0,0,0,0,0,0,0,0,0,0,0,0,0,0,0,0,0,0,0,0,0,0,0,0,1.7634,1.7634,0,1.7661,1.7661,1.7662,1.7617,1.7615,1.7614,1.7612,1.7642,1.7644,1.7646,0,0,0,0,0,0,0,0,0,0,0,0,0,1.7547,1.7549,1.7634,1.7634,1.7634,1.7661,1.7661,1.7662,1.7617,1.7615,1.7613,1.7611,1.7641,1.7644,1.7647,0,0,0,0,0,0,0,0,0,0,0,0,0,1.7581,1.755,1.7634,1.7615,1.7614,1.7661,1.7661,1.7662,1.7617,1.7615,1.7613,1.761,1.764,1.7644,1.7647,1.7714,0,0,1.7657,1.7659,0,0,0,0,0,0,0,0,1.7579,1.7584,1.7617,1.7616,1.7615,1.7633,1.7642,1.768,1.7618,1.7616,1.7612,1.7609,1.7641,1.7644,1.7654,1.7716,1.7717,1.7658,1.766,1.7661,1.7662,0,0,0,0,0,0,0,1.7577,1.7583,1.7644,1.7618,1.7617,1.7607,1.7609,1.7649,1.7641,1.7616,1.7613,1.7617,1.764,1.7651,1.7655,1.7717,1.7657,1.766,1.7662,1.7664,1.784,1.7843,0,0,0,0,0,0,1.7576,1.7581,1.7644,1.7645,1.7591,1.7611,1.7613,1.763,1.7641,1.764,1.7618,1.7614,1.7647,1.7651,1.7656,1.7738,1.7661,1.7664,1.7666,1.7837,1.7841,1.7844,0,0,0,0,0,0,1.7574,1.7582,1.7642,1.7612,1.7619,1.7614,1.7634,1.7631,1.7643,1.7643,1.7641,1.7631,1.7645,1.7651,1.7701,1.7738,1.7666,1.7669,1.7834,1.7838,1.7842,1.7901,0,0,0,0,0,0,1.7572,1.7582,1.7606,1.7613,1.7621,1.7686,1.7636,1.7634,1.7648,1.7643,1.7654,1.7654,1.7644,1.7696,1.7704,1.7741,1.7671,1.7831,1.7836,1.7841,1.7895,1.7906,1.7916,0,0,0,0,0,1.7569,1.762,1.7607,1.7615,1.7651,1.7688,1.7692,1.7679,1.7651,1.7677,1.7678,1.7653,1.7733,1.7702,1.771,1.7749,1.7828,1.7835,1.784,1.7891,1.7904,1.7915,0,0,0,0,0,0,1.7616,1.7621,1.7606,1.7661,1.7675,1.768,1.7711,1.7693,1.7715,1.7709,1.7693,1.7696,1.775,1.7755,1.772,1.7817,1.7776,1.7784,1.7812,1.7824,1.7834,1.7832,1.7674,0,0,0,0,0,1.7634,1.7662,1.7665,1.7713,1.7721,1.7715,1.7731,1.772,1.7734,1.7739,1.7743,1.7758,1.7787,1.7806,1.7832,1.7897,1.79,1.7928,1.7938,1.7946,1.7953,1.7992,1.8005,1.7863,1.7863,1.7863,0,0,1.7668,1.7674,1.7693,1.7723,1.7732,1.7764,1.772,1.7755,1.7779,1.7744,1.7792,1.7797,1.7813,1.7871,1.7897,1.7877,1.7994,1.7954,1.7961,1.7963,1.7999,1.8013,1.8025,1.7867,1.7867,1.7866,0,0,1.7748,1.7755,1.7797,1.7809,1.7824,1.782,1.7831,1.7841,1.7842,1.789,1.7866,1.7896,1.7945,1.7958,1.7972,1.8063,1.8043,1.8073,1.8124,1.8162,1.8173,1.8183,1.8218,1.8231,1.808,1.808,1.808,0,1.779,1.7836,1.7822,1.7859,1.7875,1.7846,1.7891,1.7903,1.7926,1.7938,1.7915,1.7979,1.7987,1.8051,1.8074,1.8085,1.8098,1.807,1.8173,1.8182,1.8192,1.8225,1.8238,1.8083,1.8083,1.8083,1.8082,0,1.7888,1.792,1.7953,1.7977,1.7997,1.8038,1.8032,1.8054,1.8043,1.8043,1.8095,1.8105,1.8134,1.8149,1.8138,1.8212,1.8199,1.8175,1.8133,1.8209,1.824,1.8252,1.8088,1.8087,1.8086,1.8085,0,0,1.7994,1.8014,1.8026,1.8038,1.8055,1.8081,1.8123,1.8153,1.8173,1.8191,1.8227,1.8272,1.8251,1.8267,1.8258,1.8291,1.8366,1.8263,1.8263,1.8283,1.8452,1.8471,1.8485,1.8354,1.8356,1.8358,1.8452,0,1.8075,1.8146,1.8137,1.8206,1.8238,1.8215,1.8252,1.8268,1.827,1.83,1.8303,1.8336,1.8304,1.8314,1.8346,1.835,1.84,1.8343,1.8389,1.8391,1.8386,1.8501,1.852,1.8607,1.8463,1.8465,1.8467,0,1.8178,1.8202,1.8274,1.829,1.8303,1.8336,1.8365,1.8393,1.8412,1.8412,1.8432,1.8419,1.8464,1.8423,1.8486,1.8448,1.8467,1.8473,1.8476,1.848,1.8433,1.8509,1.8635,1.8648,1.8485,1.8484,1.8483,0,1.8251,1.8301,1.8352,1.8363,1.8382,1.8407,1.8417,1.8434,1.8454,1.8479,1.8493,1.8524,1.8541,1.8566,1.8563,1.8533,1.8629,1.8586,1.8632,1.8632,1.8652,1.8651,1.8783,1.8664,1.8664,1.8663,1.8663,0,1.8342,1.8388,1.8385,1.8416,1.8468,1.8459,1.8512,1.8518,1.8535,1.8569,1.8551,1.8584,1.8577,1.8611,1.8609,1.8664,1.8671,1.8674,1.8673,1.8676,1.8676,1.8687,1.8682,1.8667,1.8666,1.8666,1.8665,0,1.8432,1.8431,1.8485,1.8501,1.8506,1.8544,1.8558,1.8589,1.8592,1.8636,1.8646,1.8651,1.869,1.869,1.8734,1.8733,1.8801,1.8792,1.8794,1.8793,1.8839,1.8835,1.8983,1.9004,1.8871,1.8872,1.8873,0,1.849,1.8524,1.8545,1.8567,1.8578,1.8613,1.8634,1.8628,1.8651,1.8679,1.8708,1.8745,1.8775,1.8839,1.8848,1.8883,1.8876,1.8926,1.8881,1.8884,1.8879,1.8877,1.8882,1.8934,1.8936,1.8937,1.8938,0,1.8594,1.8593,1.8623,1.8655,1.8681,1.8706,1.8729,1.8748,1.8746,1.8773,1.8813,1.8836,1.8883,1.8922,1.8957,1.8969,1.8955,1.8953,1.8965,1.8968,1.8968,1.8971,1.8819,1.8949,1.8948,1.8947,1.8946,1.8946,1.867,1.8701,1.8722,1.8757,1.8775,1.8798,1.8829,1.8837,1.887,1.8908,1.8903,1.8949,1.8972,1.9018,1.9034,1.9071,1.9054,1.9071,1.9076,1.9081,1.9087,1.8963,1.9077,1.9077,1.9077,1.9076,1.9076,0,1.8774,1.8787,1.8821,1.8854,1.8884,1.8868,1.8894,1.892,1.896,1.8983,1.9013,1.9062,1.9101,1.9114,1.9153,1.9181,1.9175,1.9191,1.9189,1.9193,1.9099,1.9085,1.9195,1.9195,1.9195,1.9195,1.9195,1.9195,1.8832,1.8885,1.8888,1.8951,1.8965,1.9009,1.9026,1.9048,1.9067,1.9122,1.9154,1.9163,1.9183,1.9224,1.926,1.9264,1.9279,1.9298,1.9299,1.9211,1.9199,1.9187,1.9174,1.9301,1.9302,1.939,1.9391,1.9391]},{"header":{"parameterUnit":"m.s-1","parameterCategory":1,"la1":30.2991,"la2":30.254,"lo1":-89.0895,"lo2":-89.0444,"dy":0.0017,"dx":0.0017,"nx":28,"ny":28,"refTime":"2025-04-06T03:00:00:Z","depth":0,"parameterNumber":3,"parameterNumberName":"V-component_of_WINDS"},"data":[0,0,0,0,0,0,0,0,0,0,0,0,0,0,0,0,0,0,0,0,0,0,0,0,0,0,0,0,0,0,0,0,0,0,0,0,0,0,0,0,0,0,0,0,0,0,0,0,0,0,0,0,0,0,0,0,0,0,-5.3952,-5.3955,0,-5.4198,-5.4201,-5.4204,-5.4218,-5.4215,-5.4212,-5.421,-5.4465,-5.4474,-5.4484,0,0,0,0,0,0,0,0,0,0,0,0,0,-5.3501,-5.3509,-5.3952,-5.3955,-5.3958,-5.4198,-5.4201,-5.4205,-5.4218,-5.4215,-5.4212,-5.4208,-5.4462,-5.4473,-5.4484,0,0,0,0,0,0,0,0,0,0,0,0,0,-5.3717,-5.3512,-5.3952,-5.3994,-5.4,-5.4197,-5.4201,-5.4205,-5.4219,-5.4215,-5.4211,-5.4207,-5.4458,-5.4472,-5.4486,-5.4658,0,0,-5.4529,-5.4535,0,0,0,0,0,0,0,0,-5.3704,-5.3733,-5.3985,-5.3992,-5.3999,-5.4173,-5.4136,-5.4357,-5.422,-5.4136,-5.421,-5.4205,-5.4372,-5.4393,-5.4448,-5.467,-5.4681,-5.4531,-5.4539,-5.4545,-5.4549,0,0,0,0,0,0,0,-5.369,-5.3723,-5.405,-5.3988,-5.3997,-5.4003,-5.4029,-5.4178,-5.4275,-5.4143,-5.4145,-5.4174,-5.4375,-5.4434,-5.4454,-5.4685,-5.453,-5.4543,-5.4551,-5.4557,-5.5065,-5.5069,0,0,0,0,0,0,-5.3666,-5.371,-5.4042,-5.4057,-5.3838,-5.4014,-5.4043,-5.4121,-5.4273,-5.4292,-5.4177,-5.4173,-5.4412,-5.4438,-5.4463,-5.4677,-5.4545,-5.4558,-5.4566,-5.506,-5.5066,-5.5071,0,0,0,0,0,0,-5.3656,-5.3695,-5.4032,-5.3884,-5.3928,-5.4027,-5.4114,-5.4129,-5.4188,-5.4299,-5.4316,-5.422,-5.441,-5.4443,-5.461,-5.4686,-5.4565,-5.4578,-5.5054,-5.5062,-5.5069,-5.5105,0,0,0,0,0,0,-5.3643,-5.3691,-5.3756,-5.3886,-5.3935,-5.4173,-5.4119,-5.4136,-5.4212,-5.421,-5.4344,-5.4362,-5.4409,-5.4589,-5.4624,-5.4704,-5.4589,-5.5048,-5.5057,-5.5066,-5.5098,-5.5113,-5.5126,0,0,0,0,0,-5.3627,-5.3757,-5.3759,-5.3799,-5.4018,-5.4177,-5.4206,-5.4257,-5.4218,-5.4286,-5.4357,-5.4357,-5.4672,-5.4606,-5.4646,-5.4731,-5.5043,-5.5055,-5.5065,-5.5091,-5.511,-5.5126,0,0,0,0,0,0,-5.3635,-5.3775,-5.3779,-5.3954,-5.4054,-5.4179,-5.4266,-5.4275,-5.4388,-5.4381,-5.4441,-5.4471,-5.4637,-5.47,-5.4624,-5.4907,-5.4854,-5.4873,-5.486,-5.4878,-5.4892,-5.4874,-5.46,0,0,0,0,0,-5.3657,-5.3773,-5.3889,-5.4033,-5.4083,-5.4166,-5.4237,-5.4268,-5.4374,-5.4416,-5.4499,-5.4603,-5.4726,-5.4806,-5.4924,-5.5107,-5.5138,-5.5185,-5.5199,-5.521,-5.5227,-5.5332,-5.5355,-5.5108,-5.5108,-5.5108,0,0,-5.3704,-5.3795,-5.3864,-5.4037,-5.4118,-5.4239,-5.4201,-5.433,-5.4421,-5.4436,-5.4599,-5.4664,-5.4784,-5.4961,-5.5042,-5.5019,-5.5302,-5.5225,-5.5233,-5.5244,-5.5346,-5.5369,-5.539,-5.5116,-5.5114,-5.5113,0,0,-5.3852,-5.3931,-5.4061,-5.4143,-5.4265,-5.432,-5.4351,-5.4476,-5.452,-5.4684,-5.4699,-5.4809,-5.5018,-5.5104,-5.5175,-5.5359,-5.5365,-5.5396,-5.5471,-5.5572,-5.5592,-5.5609,-5.5677,-5.57,-5.5412,-5.5412,-5.5412,0,-5.3895,-5.4076,-5.4127,-5.4256,-5.4333,-5.4352,-5.4486,-5.4563,-5.4719,-5.4772,-5.4743,-5.5008,-5.509,-5.5288,-5.5333,-5.5389,-5.5429,-5.5381,-5.5584,-5.5603,-5.562,-5.5685,-5.571,-5.5415,-5.5415,-5.5415,-5.5414,0,-5.4125,-5.4251,-5.4341,-5.449,-5.4578,-5.4708,-5.4781,-5.4864,-5.4888,-5.4946,-5.5115,-5.5215,-5.5355,-5.5404,-5.5429,-5.5607,-5.5589,-5.5571,-5.5519,-5.5646,-5.5708,-5.5734,-5.542,-5.5419,-5.5418,-5.5417,0,0,-5.4284,-5.4461,-5.4493,-5.4563,-5.47,-5.48,-5.4933,-5.5069,-5.514,-5.5248,-5.5363,-5.554,-5.5526,-5.5607,-5.5641,-5.573,-5.5873,-5.5702,-5.5706,-5.5732,-5.6079,-5.6092,-5.612,-5.5877,-5.5882,-5.5886,-5.6069,0,-5.4449,-5.4684,-5.4735,-5.4939,-5.5057,-5.5078,-5.5195,-5.5293,-5.5352,-5.5463,-5.5529,-5.5655,-5.5625,-5.5674,-5.5763,-5.5836,-5.5943,-5.5824,-5.5987,-5.5992,-5.5957,-5.6153,-5.6167,-5.6335,-5.6094,-5.6098,-5.6101,0,-5.4671,-5.4784,-5.5,-5.5125,-5.5176,-5.528,-5.5411,-5.5515,-5.5629,-5.5666,-5.5757,-5.5783,-5.5925,-5.5865,-5.6063,-5.5981,-5.6051,-5.6098,-5.6106,-5.6124,-5.6055,-5.6178,-5.639,-5.6415,-5.614,-5.6137,-5.6134,0,-5.4769,-5.4974,-5.5131,-5.5189,-5.5338,-5.541,-5.5476,-5.5585,-5.5665,-5.578,-5.5833,-5.5964,-5.6036,-5.6137,-5.6199,-5.6149,-5.6393,-5.6338,-5.643,-5.6429,-5.6481,-5.6478,-5.6709,-5.6524,-5.6523,-5.6523,-5.6522,0,-5.4948,-5.508,-5.5176,-5.5273,-5.5422,-5.548,-5.5628,-5.5693,-5.5791,-5.5902,-5.5928,-5.6033,-5.6107,-5.6223,-5.6272,-5.643,-5.6462,-5.6498,-5.651,-5.6497,-5.6492,-5.6544,-5.6535,-5.653,-5.6528,-5.6527,-5.6526,0,-5.5082,-5.5151,-5.5324,-5.5451,-5.5486,-5.5591,-5.5701,-5.5797,-5.5856,-5.5997,-5.6034,-5.6129,-5.6267,-5.6338,-5.651,-5.6543,-5.6722,-5.6726,-5.6684,-5.6689,-5.6778,-5.677,-5.7053,-5.7094,-5.6879,-5.6881,-5.6883,0,-5.5192,-5.5294,-5.5432,-5.5508,-5.5576,-5.5698,-5.578,-5.5842,-5.5926,-5.6065,-5.6145,-5.6284,-5.6398,-5.6618,-5.6704,-5.6836,-5.6845,-5.6935,-5.6865,-5.685,-5.6849,-5.6843,-5.6855,-5.6948,-5.695,-5.6951,-5.6953,0,-5.5382,-5.5412,-5.5528,-5.5658,-5.5755,-5.586,-5.5964,-5.6025,-5.6105,-5.6199,-5.634,-5.6429,-5.6605,-5.6744,-5.6884,-5.6954,-5.6968,-5.6974,-5.7003,-5.6991,-5.6963,-5.6982,-5.6719,-5.6968,-5.6966,-5.6965,-5.6964,-5.6964,-5.5509,-5.5602,-5.5714,-5.5844,-5.5929,-5.6026,-5.6123,-5.6195,-5.6313,-5.6461,-5.6491,-5.6641,-5.6755,-5.6944,-5.7018,-5.7138,-5.712,-5.7161,-5.7172,-5.7181,-5.7187,-5.6943,-5.7164,-5.7163,-5.7163,-5.7163,-5.7163,0,-5.5702,-5.5775,-5.5894,-5.6039,-5.6142,-5.6145,-5.6261,-5.6348,-5.6479,-5.6583,-5.6696,-5.686,-5.6995,-5.7092,-5.723,-5.7308,-5.7318,-5.7343,-5.7338,-5.7355,-5.7194,-5.7156,-5.7332,-5.7332,-5.7332,-5.7332,-5.7332,-5.7332,-5.5814,-5.5972,-5.6016,-5.6218,-5.6291,-5.6437,-5.6504,-5.6595,-5.6679,-5.686,-5.6973,-5.7034,-5.7137,-5.7284,-5.7409,-5.7434,-5.7485,-5.751,-5.7536,-5.7384,-5.7366,-5.7349,-5.7314,-5.752,-5.752,-5.7687,-5.7688,-5.769]}]]